Regional Weather Roundup
Issued by NWS

Home | Current Version | Previous Version | Text Only | Print | Product List | Glossary Off
Versions: 1 2 3 4 5 6 7 8 9 10 11 12 13 14 15 16 17 18 19 20 21 22 23 24 25 26 27 28 29 30 31 32 33 34 35 36 37 38 39 40 41 42 43 44 45 46 47 48 49 50

000
ASUS43 KBIS 310010
RWRND

NORTH DAKOTA REGIONAL WEATHER ROUNDUP
NATIONAL WEATHER SERVICE BISMARCK ND
700 PM CDT THU OCT 30 2014

NOTE: "FAIR" INDICATES FEW OR NO CLOUDS BELOW 12,000 FEET WITH NO
SIGNIFICANT WEATHER AND/OR OBSTRUCTIONS TO VISIBILITY.


NDZ001>003-009>011-017-310100-
NORTHWEST NORTH DAKOTA

CITY           SKY/WX    TMP DP  RH WIND       PRES   REMARKS
WILLISTON      CLOUDY    36  29  75 E8        30.49R
6HR MIN TEMP:  36; 6HR MAX TEMP:  38;

MINOT          CLEAR     25  19  78 CALM      30.52R
MINOT AFB      CLEAR     27  21  78 NW6       30.52R
$$

NDZ018>021-031>035-040>046-310100-
SOUTHWEST NORTH DAKOTA

CITY           SKY/WX    TMP DP  RH WIND       PRES   REMARKS
BISMARCK       CLOUDY    35  28  75 NE9       30.51R
6HR MIN TEMP:  35; 6HR MAX TEMP:  37;

DICKINSON      CLOUDY    33  29  85 NE7       30.45R
GARRISON         N/A     31  24  75 NE7       30.51R
6HR MIN TEMP:  31; 6HR MAX TEMP:  35;

HETTINGER ARPT CLOUDY    35  29  78 E7        30.46R
$$

NDZ004>008-012>016-024-026-027-054-310100-
NORTHEAST NORTH DAKOTA

CITY           SKY/WX    TMP DP  RH WIND       PRES   REMARKS
GRAND FORKS    PTCLDY    34  16  47 N15       30.47R
GRND FRKS AFB  CLEAR     33  14  46 N13       30.48R
DEVILS LAKE    CLEAR     30  14  51 N8        30.48R
$$

NDZ022-023-025-028>030-036>039-047>053-310100-
SOUTHEAST NORTH DAKOTA

CITY           SKY/WX    TMP DP  RH WIND       PRES   REMARKS
FARGO          CLEAR     33  22  63 N13       30.44R
6HR MIN TEMP:  33; 6HR MAX TEMP:  39;

$$




USA.gov is the U.S. government's official web portal to all federal, state and local government web resources and services.